Miscellaneous Local Product
Issued by NWS North Platte, NE

Home | Current Version | Previous Version | Text Only | Print | Product List | Glossary On
Versions: 1 2 3 4 5 6 7 8 9 10 11 12 13 14 15 16 17 18 19 20 21 22 23 24 25 26 27 28 29 30 31 32 33 34 35 36 37 38 39 40 41 42 43 44 45 46 47 48 49 50
736
AXUS43 KLBF 111010
MISLBF


WESTERN AND NORTH CENTRAL NEBRASKA HOURLY WEATHER ROUNDUP
NATIONAL WEATHER SERVICE NORTH PLATTE NE
400 AM CST THU FEB 11 2016

NOTE: "FAIR" INDICATES FEW OR NO CLOUDS BELOW 12,000 FEET WITH NO
SIGNIFICANT WEATHER AND/OR OBSTRUCTIONS TO VISIBILITY.

NOTE: STATIONS NOT REPORTING VARIABLES SUCH AS SKY/WEATHER OR
PRESSURE ARE PROVIDED BY THE NEBRASKA DEPARTMENT OF
ROADS...RAWS...AND APRS NETWORKS...AND ARE NOT UNDER
NATIONAL WEATHER SERVICE QUALITY CONTROL.

...OBSERVATIONS IN AND NEAR THE EASTERN PANHANDLE OF NEBRASKA...

CITY           SKY/WX    TMP DP  RH WIND       PRES   REMARKS
PINE RIDGE     CLEAR     23  19  85 CALM      30.06F
CHADRON        CLEAR     24  21  88 CALM      30.06F
ALLIANCE       CLEAR     22  19  89 S3        30.07F
SIDNEY         CLOUDY    31  24  75 NW9       30.11F WCI  23
CRESCENT LAKE    N/A     29  27  91 CALM        N/A
BIG SPRINGS      N/A     28  25  88 CALM        N/A
$$

...OBSERVATIONS IN NORTH CENTRAL NEBRASKA...

CITY           SKY/WX    TMP DP  RH WIND       PRES   REMARKS
VALENTINE      CLOUDY    27  26  96 W3        30.13F
THEDFORD       CLOUDY    31  30  97 N3        30.14F FOG
AINSWORTH      CLOUDY    28  24  86 CALM      30.14F
O`NEILL        CLOUDY    25  24  94 CALM      30.18S FOG
ORD            CLOUDY    29  25  85 NE3       30.18R
BROKEN BOW     CLOUDY    31  28  89 N8        30.16R WCI  23
VALENTINE NWR    N/A     26  26  99 CALM        N/A
BUTTE            N/A     22  20  93 NE3         N/A
HALSEY           N/A     29  28  95 N5          N/A  WCI  24
CHAMBERS         N/A     25  22  87 E3          N/A
EWING            N/A     22  20  92 CALM        N/A
$$

...OBSERVATIONS IN SOUTHWEST NEBRASKA AND FAR NORTHEAST COLORADO...

CITY           SKY/WX    TMP DP  RH WIND       PRES   REMARKS
HOLYOKE        FAIR      30  27  86 S5        30.14S WCI  25
IMPERIAL       CLOUDY    26  22  84 CALM      30.14F
OGALLALA       CLOUDY    25  22  90 CALM      30.13F
NORTH PLATTE   CLOUDY    23  20  88 CALM      30.15F
MCCOOK         CLOUDY    25  22  88 CALM      30.16S
LEXINGTON      CLOUDY    29  26  87 CALM      30.18S
PAXTON           N/A     24  21  87 CALM        N/A
STAPLETON        N/A     28  27  94 CALM        N/A
GOTHENBURG       N/A     27  23  85 CALM        N/A
CALLAWAY         N/A     29  28  94 NE6         N/A  WCI  23
$$

...OBSERVATIONS IN CENTRAL LINCOLN COUNTY AREA...

CITY           SKY/WX    TMP DP  RH WIND       PRES   REMARKS
N.P. AIRPORT   CLOUDY    23  20  88 CALM      30.15F
N.P. DOWNTOWN    N/A     28  26  92 CALM        N/A
N.P. SOUTHEAST   N/A     26  24  91 CALM        N/A
N.P. HILLCREST   N/A     28  26  94 CALM        N/A
$$

...SOME OBSERVATIONS FROM AROUND THE REGION...

CITY           SKY/WX    TMP DP  RH WIND       PRES   REMARKS
DENVER         CLOUDY    38  18  44 S8        30.17F WCI  32
LARAMIE        CLOUDY    33  14  45 SW12      30.20F WCI  24
CHEYENNE       CLOUDY    37  15  40 MISG      30.14F
SCOTTSBLUFF    CLEAR     31  23  72 NW7       30.09F WCI  24
RAPID CITY     CLOUDY    28  26  92 S12       30.04F FOG     WCI  18
BISMARCK       CLOUDY    19  12  74 SE5       30.16F WCI  12
PIERRE         CLOUDY    21  19  92 E5        30.17S WCI  15
WINNER         CLOUDY    26  22  84 E3        30.15F
SIOUX FALLS    CLOUDY    13   4  67 E5        30.24S WCI   5
OMAHA          PTCLDY    16  10  77 NE6       30.25F WCI   7
GRAND ISLAND   CLOUDY    26  23  88 N7        30.21R WCI  18
KANSAS CITY    PTCLDY    22  19  89 NE12      30.17R WCI  10
WICHITA        CLOUDY    38  29  70 N7        30.10R WCI  33
OKLAHOMA CITY  PTCLDY    45  31  58 N7        30.02R
LIBERAL        PTCLDY    32  19  59 NW6       30.15R WCI  26
HAYS           CLEAR     30  19  64 N9        30.17R WCI  22
GOODLAND       CLOUDY    29  23  78 W8        30.16S WCI  21
$$




USA.gov is the U.S. government's official web portal to all federal, state and local government web resources and services.